Location: Evansville
(37.9747°N, 87.5558°W)
Time: 03:30:14
(UTC-06:00)

BlueWalker 3 - Pass Details

Date: 21 December 2025
Orbit: 451 x 463 km, 53.2° (Epoch: 18 January)

Event Time Altitude Azimuth Distance (km) Brightness Sun altitude
Exits shadow 05:48:33 - 224° (SW) 2,094 4.8 -14.1°
Reaches altitude 10° 05:49:49 10° 223° (SW) 1,578 4.2 -13.9°
Maximum altitude 05:53:22 81° 136° (SE) 463 1.8 -13.2°
Drops below altitude 10° 05:56:57 10° 50° (NE) 1,595 4.9 -12.6°
Sets 05:59:06 0° 49° (NE) 2,474 5.9 -12.2°
